Terug naar catalogus

STARLINK-35689

ActiefCommunicatieVLEO
NORAD 66494·PAYLOAD·🇺🇸 United States

Gelanceerd Nov 15, 2025 vanaf Cape Canaveral Space Force Station

Loading…

Volgende Passages (komende 24 uur)

TLE

VersSource: CelesTrak SupGP

Epoch: Sep 15, 2026, 03:32 UTC

1 66494C 25263K   26258.14770833  .00036582  00000+0  13247-2 0  2583
2 66494  43.0013   1.1227 0001675 258.4297 318.0179 15.27567759    15

Volg STARLINK-35689 in realtime met AllMySat

Download on the App Store